Terminal Aerodrome Forecast
Issued by NWS St Louis, MO

Home | Current Version | Previous Version | Text Only | Print | Product List | Glossary On
Versions: 1 2 3 4 5 6 7 8 9 10 11 12 13 14 15 16 17 18 19 20 21 22 23
000
FTUS43 KLSX 161000 AAB
TAFSTL
TAF AMD
KSTL 161027Z 1610/1712 VRB03KT 3SM BR BKN004 BKN020
      TEMPO 1611/1614 1SM BR
     FM161500 VRB05KT P6SM BKN015
     FM161700 VRB03KT P6SM SCT030=

USA.gov is the U.S. government's official web portal to all federal, state and local government web resources and services.